Year,Month,Day,Hour,Minute,Value (Times are PST for temperature in C)
2014,08,18,00,00,19.10
2014,08,18,00,01,19.00
2014,08,18,00,02,19.00
2014,08,18,00,03,19.00
2014,08,18,00,04,18.90
2014,08,18,00,05,18.90
2014,08,18,00,06,18.90
2014,08,18,00,07,18.80
2014,08,18,00,08,18.80
2014,08,18,00,09,18.80
2014,08,18,00,10,18.70
2014,08,18,00,11,18.70
2014,08,18,00,12,18.70
2014,08,18,00,13,18.70
2014,08,18,00,14,18.60
2014,08,18,00,15,18.60
2014,08,18,00,16,18.60
2014,08,18,00,17,18.60
2014,08,18,00,18,18.50
2014,08,18,00,19,18.50
2014,08,18,00,20,18.50
2014,08,18,00,21,18.40
2014,08,18,00,22,18.40
2014,08,18,00,23,18.40
2014,08,18,00,24,18.40
2014,08,18,00,25,18.30
2014,08,18,00,26,18.30
2014,08,18,00,27,18.30
2014,08,18,00,28,18.30
2014,08,18,00,29,18.20
2014,08,18,00,30,18.20
2014,08,18,00,31,18.20
2014,08,18,00,32,18.20
2014,08,18,00,33,18.20
2014,08,18,00,34,18.10
2014,08,18,00,35,18.10
2014,08,18,00,36,18.10
2014,08,18,00,37,18.10
2014,08,18,00,38,18.00
2014,08,18,00,39,18.00
2014,08,18,00,40,18.00
2014,08,18,00,41,18.00
2014,08,18,00,42,17.90
2014,08,18,00,43,17.90
2014,08,18,00,44,17.90
2014,08,18,00,45,17.90
2014,08,18,00,46,17.90
2014,08,18,00,47,17.80
2014,08,18,00,48,17.80
2014,08,18,00,49,17.80
2014,08,18,00,50,17.80
2014,08,18,00,51,17.80
2014,08,18,00,52,17.80
2014,08,18,00,53,17.70
2014,08,18,00,54,17.70
2014,08,18,00,55,17.70
2014,08,18,00,56,17.70
2014,08,18,00,57,17.70
2014,08,18,00,58,17.60
2014,08,18,00,59,17.60
2014,08,18,01,00,17.60
2014,08,18,01,01,17.60
2014,08,18,01,02,17.60
2014,08,18,01,03,17.60
2014,08,18,01,04,17.60
2014,08,18,01,05,17.60
2014,08,18,01,06,17.60
2014,08,18,01,07,17.60
2014,08,18,01,08,17.60
2014,08,18,01,09,17.60
2014,08,18,01,10,17.70
2014,08,18,01,11,17.70
2014,08,18,01,12,17.70
2014,08,18,01,13,17.70
2014,08,18,01,14,17.70
2014,08,18,01,15,17.70
2014,08,18,01,16,17.80
2014,08,18,01,17,17.80
2014,08,18,01,18,17.80
2014,08,18,01,19,17.80
2014,08,18,01,20,17.80
2014,08,18,01,21,17.80
2014,08,18,01,22,17.80
2014,08,18,01,23,17.80
2014,08,18,01,24,17.80
2014,08,18,01,25,17.80
2014,08,18,01,26,17.80
2014,08,18,01,27,17.80
2014,08,18,01,28,17.80
2014,08,18,01,29,17.80
2014,08,18,01,30,17.70
2014,08,18,01,31,17.70
2014,08,18,01,32,17.70
2014,08,18,01,33,17.70
2014,08,18,01,34,17.70
2014,08,18,01,35,17.70
2014,08,18,01,36,17.70
2014,08,18,01,37,17.70
2014,08,18,01,38,17.70
2014,08,18,01,39,17.70
2014,08,18,01,40,17.60
2014,08,18,01,41,17.60
2014,08,18,01,42,17.60
2014,08,18,01,43,17.60
2014,08,18,01,44,17.60
2014,08,18,01,45,17.60
2014,08,18,01,46,17.60
2014,08,18,01,47,17.60
2014,08,18,01,48,17.60
2014,08,18,01,49,17.60
2014,08,18,01,50,17.50
2014,08,18,01,51,17.50
2014,08,18,01,52,17.50
2014,08,18,01,53,17.50
2014,08,18,01,54,17.50
2014,08,18,01,55,17.50
2014,08,18,01,56,17.50
2014,08,18,01,57,17.40
2014,08,18,01,58,17.40
2014,08,18,01,59,17.40
2014,08,18,02,00,17.40
2014,08,18,02,01,17.40
2014,08,18,02,02,17.40
2014,08,18,02,03,17.30
2014,08,18,02,04,17.30
2014,08,18,02,05,17.30
2014,08,18,02,06,17.30
2014,08,18,02,07,17.30
2014,08,18,02,08,17.30
2014,08,18,02,09,17.30
2014,08,18,02,10,17.30
2014,08,18,02,11,17.20
2014,08,18,02,12,17.20
2014,08,18,02,13,17.20
2014,08,18,02,14,17.20
2014,08,18,02,15,17.20
2014,08,18,02,16,17.30
2014,08,18,02,17,17.30
2014,08,18,02,18,17.30
2014,08,18,02,19,17.30
2014,08,18,02,20,17.30
2014,08,18,02,21,17.30
2014,08,18,02,22,17.30
2014,08,18,02,23,17.30
2014,08,18,02,24,17.30
2014,08,18,02,25,17.30
2014,08,18,02,26,17.20
2014,08,18,02,27,17.20
2014,08,18,02,28,17.20
2014,08,18,02,29,17.20
2014,08,18,02,30,17.10
2014,08,18,02,31,17.10
2014,08,18,02,32,17.10
2014,08,18,02,33,17.10
2014,08,18,02,34,17.10
2014,08,18,02,35,17.10
2014,08,18,02,36,17.10
2014,08,18,02,37,17.10
2014,08,18,02,38,17.10
2014,08,18,02,39,17.10
2014,08,18,02,40,17.10
2014,08,18,02,41,17.10
2014,08,18,02,42,17.10
2014,08,18,02,43,17.00
2014,08,18,02,44,17.00
2014,08,18,02,45,17.00
2014,08,18,02,46,16.90
2014,08,18,02,47,16.90
2014,08,18,02,48,16.90
2014,08,18,02,49,16.90
2014,08,18,02,50,16.90
2014,08,18,02,51,16.90
2014,08,18,02,52,16.90
2014,08,18,02,53,16.80
2014,08,18,02,54,16.80
2014,08,18,02,55,16.80
2014,08,18,02,56,16.80
2014,08,18,02,57,16.80
2014,08,18,02,58,16.80
2014,08,18,02,59,16.80
2014,08,18,03,00,16.80
2014,08,18,03,01,16.70
2014,08,18,03,02,16.70
2014,08,18,03,03,16.70
2014,08,18,03,04,16.70
2014,08,18,03,05,16.70
2014,08,18,03,06,16.70
2014,08,18,03,07,16.60
2014,08,18,03,08,16.60
2014,08,18,03,09,16.60
2014,08,18,03,10,16.60
2014,08,18,03,11,16.60
2014,08,18,03,12,16.60
2014,08,18,03,13,16.60
2014,08,18,03,14,16.60
2014,08,18,03,15,16.60
2014,08,18,03,16,16.60
2014,08,18,03,17,16.60
2014,08,18,03,18,16.60
2014,08,18,03,19,16.60
2014,08,18,03,20,16.60
2014,08,18,03,21,16.60
2014,08,18,03,22,16.60
2014,08,18,03,23,16.60
2014,08,18,03,24,16.60
2014,08,18,03,25,16.60
2014,08,18,03,26,16.60
2014,08,18,03,27,16.60
2014,08,18,03,28,16.60
2014,08,18,03,29,16.60
2014,08,18,03,30,16.50
2014,08,18,03,31,16.50
2014,08,18,03,32,16.50
2014,08,18,03,33,16.40
2014,08,18,03,34,16.40
2014,08,18,03,35,16.40
2014,08,18,03,36,16.40
2014,08,18,03,37,16.40
2014,08,18,03,38,16.30
2014,08,18,03,39,16.30
2014,08,18,03,40,16.30
2014,08,18,03,41,16.30
2014,08,18,03,42,16.30
2014,08,18,03,43,16.30
2014,08,18,03,44,16.30
2014,08,18,03,45,16.30
2014,08,18,03,46,16.30
2014,08,18,03,47,16.30
2014,08,18,03,48,16.30
2014,08,18,03,49,16.30
2014,08,18,03,50,16.30
2014,08,18,03,51,16.20
2014,08,18,03,52,16.20
2014,08,18,03,53,16.20
2014,08,18,03,54,16.20
2014,08,18,03,55,16.20
2014,08,18,03,56,16.20
2014,08,18,03,57,16.20
2014,08,18,03,58,16.20
2014,08,18,03,59,16.20
2014,08,18,04,00,16.20
2014,08,18,04,01,16.20
2014,08,18,04,02,16.20
2014,08,18,04,03,16.10
2014,08,18,04,04,16.10
2014,08,18,04,05,16.10
2014,08,18,04,06,16.10
2014,08,18,04,07,16.10
2014,08,18,04,08,16.00
2014,08,18,04,09,16.00
2014,08,18,04,10,16.00
2014,08,18,04,11,16.00
2014,08,18,04,12,16.00
2014,08,18,04,13,15.90
2014,08,18,04,14,15.90
2014,08,18,04,15,15.90
2014,08,18,04,16,15.90
2014,08,18,04,17,15.90
2014,08,18,04,18,15.90
2014,08,18,04,19,15.90
2014,08,18,04,20,15.90
2014,08,18,04,21,15.80
2014,08,18,04,22,15.80
2014,08,18,04,23,15.80
2014,08,18,04,24,15.80
2014,08,18,04,25,15.80
2014,08,18,04,26,15.80
2014,08,18,04,27,15.80
2014,08,18,04,28,15.80
2014,08,18,04,29,15.90
2014,08,18,04,30,15.90
2014,08,18,04,31,15.90
2014,08,18,04,32,15.90
2014,08,18,04,33,15.90
2014,08,18,04,34,15.90
2014,08,18,04,35,15.90
2014,08,18,04,36,15.90
2014,08,18,04,37,15.90
2014,08,18,04,38,15.90
2014,08,18,04,39,15.90
2014,08,18,04,40,15.90
2014,08,18,04,41,15.90
2014,08,18,04,42,15.90
2014,08,18,04,43,15.90
2014,08,18,04,44,15.90
2014,08,18,04,45,15.90
2014,08,18,04,46,15.90
2014,08,18,04,47,15.90
2014,08,18,04,48,15.90
2014,08,18,04,49,15.90
2014,08,18,04,50,15.90
2014,08,18,04,51,15.90
2014,08,18,04,52,15.90
2014,08,18,04,53,15.90
2014,08,18,04,54,15.90
2014,08,18,04,55,15.90
2014,08,18,04,56,15.90
2014,08,18,04,57,15.80
2014,08,18,04,58,15.80
2014,08,18,04,59,15.80
2014,08,18,05,00,15.80
2014,08,18,05,01,15.80
2014,08,18,05,02,15.80
2014,08,18,05,03,15.70
2014,08,18,05,04,15.70
2014,08,18,05,05,15.70
2014,08,18,05,06,15.70
2014,08,18,05,07,15.70
2014,08,18,05,08,15.60
2014,08,18,05,09,15.60
2014,08,18,05,10,15.60
2014,08,18,05,11,15.50
2014,08,18,05,12,15.50
2014,08,18,05,13,15.50
2014,08,18,05,14,15.40
2014,08,18,05,15,15.40
2014,08,18,05,16,15.40
2014,08,18,05,17,15.40
2014,08,18,05,18,15.30
2014,08,18,05,19,15.30
2014,08,18,05,20,15.30
2014,08,18,05,21,15.30
2014,08,18,05,22,15.20
2014,08,18,05,23,15.20
2014,08,18,05,24,15.20
2014,08,18,05,25,15.20
2014,08,18,05,26,15.20
2014,08,18,05,27,15.10
2014,08,18,05,28,15.10
2014,08,18,05,29,15.10
2014,08,18,05,30,15.10
2014,08,18,05,31,15.00
2014,08,18,05,32,15.00
2014,08,18,05,33,15.00
2014,08,18,05,34,14.90
2014,08,18,05,35,14.90
2014,08,18,05,36,14.90
2014,08,18,05,37,14.90
2014,08,18,05,38,14.90
2014,08,18,05,39,14.80
2014,08,18,05,40,14.80
2014,08,18,05,41,14.80
2014,08,18,05,42,14.80
2014,08,18,05,43,14.70
2014,08,18,05,44,14.70
2014,08,18,05,45,14.70
2014,08,18,05,46,14.60
2014,08,18,05,47,14.60
2014,08,18,05,48,14.60
2014,08,18,05,49,14.60
2014,08,18,05,50,14.60
2014,08,18,05,51,14.50
2014,08,18,05,52,14.50
2014,08,18,05,53,14.50
2014,08,18,05,54,14.50
2014,08,18,05,55,14.40
2014,08,18,05,56,14.40
2014,08,18,05,57,14.40
2014,08,18,05,58,14.40
2014,08,18,05,59,14.40
2014,08,18,06,00,14.30
2014,08,18,06,01,14.30
2014,08,18,06,02,14.30
2014,08,18,06,03,14.30
2014,08,18,06,04,14.30
2014,08,18,06,05,14.30
2014,08,18,06,06,14.30
2014,08,18,06,07,14.20
2014,08,18,06,08,14.20
2014,08,18,06,09,14.20
2014,08,18,06,10,14.20
2014,08,18,06,11,14.20
2014,08,18,06,12,14.20
2014,08,18,06,13,14.20
2014,08,18,06,14,14.10
2014,08,18,06,15,14.10
2014,08,18,06,16,14.10
2014,08,18,06,17,14.10
2014,08,18,06,18,14.10
2014,08,18,06,19,14.10
2014,08,18,06,20,14.00
2014,08,18,06,21,14.00
2014,08,18,06,22,14.00
2014,08,18,06,23,14.00
2014,08,18,06,24,14.00
2014,08,18,06,25,14.00
2014,08,18,06,26,14.00
2014,08,18,06,27,14.00
2014,08,18,06,28,14.00
2014,08,18,06,29,13.90
2014,08,18,06,30,13.90
2014,08,18,06,31,14.00
2014,08,18,06,32,14.00
2014,08,18,06,33,14.00
2014,08,18,06,34,14.00
2014,08,18,06,35,14.00
2014,08,18,06,36,14.00
2014,08,18,06,37,14.00
2014,08,18,06,38,14.10
2014,08,18,06,39,14.10
2014,08,18,06,40,14.10
2014,08,18,06,41,14.10
2014,08,18,06,42,14.10
2014,08,18,06,43,14.20
2014,08,18,06,44,14.20
2014,08,18,06,45,14.20
2014,08,18,06,46,14.30
2014,08,18,06,47,14.30
2014,08,18,06,48,14.30
2014,08,18,06,49,14.30
2014,08,18,06,50,14.40
2014,08,18,06,51,14.40
2014,08,18,06,52,14.40
2014,08,18,06,53,14.50
2014,08,18,06,54,14.60
2014,08,18,06,55,14.60
2014,08,18,06,56,14.60
2014,08,18,06,57,14.70
2014,08,18,06,58,14.70
2014,08,18,06,59,14.80
2014,08,18,07,00,14.90
2014,08,18,07,01,14.90
2014,08,18,07,02,15.00
2014,08,18,07,03,15.10
2014,08,18,07,04,15.20
2014,08,18,07,05,15.30
2014,08,18,07,06,15.30
2014,08,18,07,07,15.40
2014,08,18,07,08,15.50
2014,08,18,07,09,15.60
2014,08,18,07,10,15.70
2014,08,18,07,11,15.80
2014,08,18,07,12,15.90
2014,08,18,07,13,15.90
2014,08,18,07,14,16.00
2014,08,18,07,15,16.10
2014,08,18,07,16,16.10
2014,08,18,07,17,16.10
2014,08,18,07,18,16.10
2014,08,18,07,19,16.10
2014,08,18,07,20,16.10
2014,08,18,07,21,16.10
2014,08,18,07,22,16.10
2014,08,18,07,23,16.10
2014,08,18,07,24,16.00
2014,08,18,07,25,16.00
2014,08,18,07,26,16.00
2014,08,18,07,27,16.00
2014,08,18,07,28,16.00
2014,08,18,07,29,15.90
2014,08,18,07,30,15.90
2014,08,18,07,31,15.90
2014,08,18,07,32,15.80
2014,08,18,07,33,15.80
2014,08,18,07,34,15.80
2014,08,18,07,35,15.90
2014,08,18,07,36,15.90
2014,08,18,07,37,15.90
2014,08,18,07,38,16.00
2014,08,18,07,39,16.10
2014,08,18,07,40,16.20
2014,08,18,07,41,16.20
2014,08,18,07,42,16.30
2014,08,18,07,43,16.40
2014,08,18,07,44,16.40
2014,08,18,07,45,16.50
2014,08,18,07,46,16.50
2014,08,18,07,47,16.60
2014,08,18,07,48,16.70
2014,08,18,07,49,16.80
2014,08,18,07,50,16.80
2014,08,18,07,51,16.90
2014,08,18,07,52,16.90
2014,08,18,07,53,17.00
2014,08,18,07,54,17.00
2014,08,18,07,55,17.00
2014,08,18,07,56,17.10
2014,08,18,07,57,17.20
2014,08,18,07,58,17.20
2014,08,18,07,59,17.30
2014,08,18,08,00,17.30
2014,08,18,08,01,17.40
2014,08,18,08,02,17.50
2014,08,18,08,03,17.50
2014,08,18,08,04,17.60
2014,08,18,08,05,17.70
2014,08,18,08,06,17.70
2014,08,18,08,07,17.70
2014,08,18,08,08,17.70
2014,08,18,08,09,17.70
2014,08,18,08,10,17.70
2014,08,18,08,11,17.70
2014,08,18,08,12,17.70
2014,08,18,08,13,17.80
2014,08,18,08,14,17.80
2014,08,18,08,15,17.90
2014,08,18,08,16,18.00
2014,08,18,08,17,18.10
2014,08,18,08,18,18.20
2014,08,18,08,19,18.30
2014,08,18,08,20,18.40
2014,08,18,08,21,18.50
2014,08,18,08,22,18.60
2014,08,18,08,23,18.60
2014,08,18,08,24,18.70
2014,08,18,08,25,18.70
2014,08,18,08,26,18.70
2014,08,18,08,27,18.70
2014,08,18,08,28,18.70
2014,08,18,08,29,18.80
2014,08,18,08,30,18.80
2014,08,18,08,31,18.80
2014,08,18,08,32,18.70
2014,08,18,08,33,18.70
2014,08,18,08,34,18.70
2014,08,18,08,35,18.70
2014,08,18,08,36,18.70
2014,08,18,08,37,18.60
2014,08,18,08,38,18.60
2014,08,18,08,39,18.50
2014,08,18,08,40,18.50
2014,08,18,08,41,18.50
2014,08,18,08,42,18.50
2014,08,18,08,43,18.50
2014,08,18,08,44,18.60
2014,08,18,08,45,18.60
2014,08,18,08,46,18.70
2014,08,18,08,47,18.70
2014,08,18,08,48,18.70
2014,08,18,08,49,18.80
2014,08,18,08,50,18.90
2014,08,18,08,51,19.00
2014,08,18,08,52,19.00
2014,08,18,08,53,19.10
2014,08,18,08,54,19.10
2014,08,18,08,55,19.20
2014,08,18,08,56,19.20
2014,08,18,08,57,19.20
2014,08,18,08,58,19.10
2014,08,18,08,59,19.10
2014,08,18,09,00,19.00
2014,08,18,09,01,19.00
2014,08,18,09,02,19.00
2014,08,18,09,03,18.90
2014,08,18,09,04,18.90
2014,08,18,09,05,18.90
2014,08,18,09,06,19.00
2014,08,18,09,07,19.00
2014,08,18,09,08,19.10
2014,08,18,09,09,19.20
2014,08,18,09,10,19.30
2014,08,18,09,11,19.40
2014,08,18,09,12,19.50
2014,08,18,09,13,19.60
2014,08,18,09,14,19.70
2014,08,18,09,15,19.70
2014,08,18,09,16,19.70
2014,08,18,09,17,19.70
2014,08,18,09,18,19.70
2014,08,18,09,19,19.70
2014,08,18,09,20,19.70
2014,08,18,09,21,19.70
2014,08,18,09,22,19.80
2014,08,18,09,23,19.70
2014,08,18,09,24,19.70
2014,08,18,09,25,19.70
2014,08,18,09,26,19.70
2014,08,18,09,27,19.70
2014,08,18,09,28,19.80
2014,08,18,09,29,19.80
2014,08,18,09,30,19.90
2014,08,18,09,31,19.90
2014,08,18,09,32,20.00
2014,08,18,09,33,20.00
2014,08,18,09,34,20.00
2014,08,18,09,35,20.10
2014,08,18,09,36,20.10
2014,08,18,09,37,20.20
2014,08,18,09,38,20.30
2014,08,18,09,39,20.40
2014,08,18,09,40,20.40
2014,08,18,09,41,20.60
2014,08,18,09,42,20.70
2014,08,18,09,43,20.70
2014,08,18,09,44,20.70
2014,08,18,09,45,20.70
2014,08,18,09,46,20.70
2014,08,18,09,47,20.70
2014,08,18,09,48,20.60
2014,08,18,09,49,20.60
2014,08,18,09,50,20.50
2014,08,18,09,51,20.40
2014,08,18,09,52,20.30
2014,08,18,09,53,20.30
2014,08,18,09,54,20.30
2014,08,18,09,55,20.40
2014,08,18,09,56,20.40
2014,08,18,09,57,20.50
2014,08,18,09,58,20.60
2014,08,18,09,59,20.60
2014,08,18,10,00,20.70
2014,08,18,10,01,20.70
2014,08,18,10,02,20.70
2014,08,18,10,03,20.80
2014,08,18,10,04,20.80
2014,08,18,10,05,20.80
2014,08,18,10,06,20.90
2014,08,18,10,07,20.90
2014,08,18,10,08,20.80
2014,08,18,10,09,20.80
2014,08,18,10,10,20.80
2014,08,18,10,11,20.80
2014,08,18,10,12,20.80
2014,08,18,10,13,20.80
2014,08,18,10,14,20.90
2014,08,18,10,15,20.90
2014,08,18,10,16,20.90
2014,08,18,10,17,20.90
2014,08,18,10,18,20.90
2014,08,18,10,19,20.90
2014,08,18,10,20,20.90
2014,08,18,10,21,21.00
2014,08,18,10,22,21.00
2014,08,18,10,23,21.00
2014,08,18,10,24,21.00
2014,08,18,10,25,20.90
2014,08,18,10,26,20.90
2014,08,18,10,27,20.90
2014,08,18,10,28,20.90
2014,08,18,10,29,20.80
2014,08,18,10,30,20.80
2014,08,18,10,31,20.80
2014,08,18,10,32,20.70
2014,08,18,10,33,20.70
2014,08,18,10,34,20.80
2014,08,18,10,35,20.80
2014,08,18,10,36,20.80
2014,08,18,10,37,20.90
2014,08,18,10,38,20.90
2014,08,18,10,39,21.00
2014,08,18,10,40,21.00
2014,08,18,10,41,21.10
2014,08,18,10,42,21.10
2014,08,18,10,43,21.10
2014,08,18,10,44,21.10
2014,08,18,10,45,21.10
2014,08,18,10,46,21.20
2014,08,18,10,47,21.20
2014,08,18,10,48,21.20
2014,08,18,10,49,21.30
2014,08,18,10,50,21.30
2014,08,18,10,51,21.30
2014,08,18,10,52,21.30
2014,08,18,10,53,21.30
2014,08,18,10,54,21.40
2014,08,18,10,55,21.40
2014,08,18,10,56,21.50
2014,08,18,10,57,21.50
2014,08,18,10,58,21.60
2014,08,18,10,59,21.60
2014,08,18,11,00,21.60
2014,08,18,11,01,21.60
2014,08,18,11,02,21.50
2014,08,18,11,03,21.40
2014,08,18,11,04,21.40
2014,08,18,11,05,21.40
2014,08,18,11,06,21.40
2014,08,18,11,07,21.50
2014,08,18,11,08,21.40
2014,08,18,11,09,21.40
2014,08,18,11,10,21.40
2014,08,18,11,11,21.40
2014,08,18,11,12,21.40
2014,08,18,11,13,21.30
2014,08,18,11,14,21.30
2014,08,18,11,15,21.30
2014,08,18,11,16,21.30
2014,08,18,11,17,21.20
2014,08,18,11,18,21.00
2014,08,18,11,19,20.90
2014,08,18,11,20,20.90
2014,08,18,11,21,20.90
2014,08,18,11,22,20.90
2014,08,18,11,23,20.90
2014,08,18,11,24,20.90
2014,08,18,11,25,20.90
2014,08,18,11,26,20.90
2014,08,18,11,27,20.90
2014,08,18,11,28,21.00
2014,08,18,11,29,21.00
2014,08,18,11,30,21.00
2014,08,18,11,31,21.00
2014,08,18,11,32,21.00
2014,08,18,11,33,21.00
2014,08,18,11,34,21.00
2014,08,18,11,35,21.10
2014,08,18,11,36,21.10
2014,08,18,11,37,21.20
2014,08,18,11,38,21.30
2014,08,18,11,39,21.40
2014,08,18,11,40,21.60
2014,08,18,11,41,21.70
2014,08,18,11,42,21.80
2014,08,18,11,43,21.90
2014,08,18,11,44,22.00
2014,08,18,11,45,22.10
2014,08,18,11,46,22.20
2014,08,18,11,47,22.30
2014,08,18,11,48,22.30
2014,08,18,11,49,22.30
2014,08,18,11,50,22.30
2014,08,18,11,51,22.40
2014,08,18,11,52,22.40
2014,08,18,11,53,22.40
2014,08,18,11,54,22.50
2014,08,18,11,55,22.50
2014,08,18,11,56,22.50
2014,08,18,11,57,22.60
2014,08,18,11,58,22.60
2014,08,18,11,59,22.70
2014,08,18,12,00,22.80
2014,08,18,12,01,22.90
2014,08,18,12,02,23.00
2014,08,18,12,03,23.10
2014,08,18,12,04,23.20
2014,08,18,12,05,23.10
2014,08,18,12,06,23.10
2014,08,18,12,07,23.20
2014,08,18,12,08,23.30
2014,08,18,12,09,23.30
2014,08,18,12,10,23.50
2014,08,18,12,11,23.50
2014,08,18,12,12,23.60
2014,08,18,12,13,23.80
2014,08,18,12,14,23.90
2014,08,18,12,15,24.00
2014,08,18,12,16,24.10
2014,08,18,12,17,24.10
2014,08,18,12,18,24.20
2014,08,18,12,19,24.30
2014,08,18,12,20,24.30
2014,08,18,12,21,24.40
2014,08,18,12,22,24.40
2014,08,18,12,23,24.40
2014,08,18,12,24,24.40
2014,08,18,12,25,24.30
2014,08,18,12,26,24.30
2014,08,18,12,27,24.20
2014,08,18,12,28,24.20
2014,08,18,12,29,24.20
2014,08,18,12,30,24.10
2014,08,18,12,31,24.10
2014,08,18,12,32,24.10
2014,08,18,12,33,24.10
2014,08,18,12,34,24.10
2014,08,18,12,35,24.10
2014,08,18,12,36,24.20
2014,08,18,12,37,24.30
2014,08,18,12,38,24.30
2014,08,18,12,39,24.30
2014,08,18,12,40,24.40
2014,08,18,12,41,24.40
2014,08,18,12,42,24.40
2014,08,18,12,43,24.40
2014,08,18,12,44,24.30
2014,08,18,12,45,24.10
2014,08,18,12,46,23.90
2014,08,18,12,47,23.80
2014,08,18,12,48,23.70
2014,08,18,12,49,23.60
2014,08,18,12,50,23.50
2014,08,18,12,51,23.50
2014,08,18,12,52,23.50
2014,08,18,12,53,23.50
2014,08,18,12,54,23.40
2014,08,18,12,55,23.40
2014,08,18,12,56,23.30
2014,08,18,12,57,23.20
2014,08,18,12,58,23.20
2014,08,18,12,59,23.20
2014,08,18,13,00,23.20
2014,08,18,13,01,23.20
2014,08,18,13,02,23.20
2014,08,18,13,03,23.20
2014,08,18,13,04,23.20
2014,08,18,13,05,23.30
2014,08,18,13,06,23.30
2014,08,18,13,07,23.40
2014,08,18,13,08,23.40
2014,08,18,13,09,23.50
2014,08,18,13,10,23.60
2014,08,18,13,11,23.70
2014,08,18,13,12,23.70
2014,08,18,13,13,23.70
2014,08,18,13,14,23.70
2014,08,18,13,15,23.70
2014,08,18,13,16,23.60
2014,08,18,13,17,23.50
2014,08,18,13,18,23.50
2014,08,18,13,19,23.40
2014,08,18,13,20,23.50
2014,08,18,13,21,23.50
2014,08,18,13,22,23.60
2014,08,18,13,23,23.70
2014,08,18,13,24,23.70
2014,08,18,13,25,23.70
2014,08,18,13,26,23.70
2014,08,18,13,27,23.70
2014,08,18,13,28,23.70
2014,08,18,13,29,23.70
2014,08,18,13,30,23.70
2014,08,18,13,31,23.80
2014,08,18,13,32,23.80
2014,08,18,13,33,23.80
2014,08,18,13,34,23.80
2014,08,18,13,35,23.80
2014,08,18,13,36,23.80
2014,08,18,13,37,23.70
2014,08,18,13,38,23.70
2014,08,18,13,39,23.70
2014,08,18,13,40,23.70
2014,08,18,13,41,23.70
2014,08,18,13,42,23.70
2014,08,18,13,43,23.70
2014,08,18,13,44,23.70
2014,08,18,13,45,23.70
2014,08,18,13,46,23.70
2014,08,18,13,47,23.70
2014,08,18,13,48,23.70
2014,08,18,13,49,23.70
2014,08,18,13,50,23.70
2014,08,18,13,51,23.80
2014,08,18,13,52,23.80
2014,08,18,13,53,23.90
2014,08,18,13,54,23.90
2014,08,18,13,55,24.00
2014,08,18,13,56,24.10
2014,08,18,13,57,24.20
2014,08,18,13,58,24.40
2014,08,18,13,59,24.40
2014,08,18,14,00,24.50
2014,08,18,14,01,24.50
2014,08,18,14,02,24.60
2014,08,18,14,03,24.60
2014,08,18,14,04,24.60
2014,08,18,14,05,24.70
2014,08,18,14,06,24.70
2014,08,18,14,07,24.60
2014,08,18,14,08,24.50
2014,08,18,14,09,24.40
2014,08,18,14,10,24.30
2014,08,18,14,11,24.30
2014,08,18,14,12,24.20
2014,08,18,14,13,24.20
2014,08,18,14,14,24.20
2014,08,18,14,15,24.10
2014,08,18,14,16,24.10
2014,08,18,14,17,24.00
2014,08,18,14,18,24.00
2014,08,18,14,19,23.90
2014,08,18,14,20,23.90
2014,08,18,14,21,23.90
2014,08,18,14,22,24.00
2014,08,18,14,23,24.00
2014,08,18,14,24,23.90
2014,08,18,14,25,23.90
2014,08,18,14,26,23.80
2014,08,18,14,27,23.70
2014,08,18,14,28,23.70
2014,08,18,14,29,23.70
2014,08,18,14,30,23.70
2014,08,18,14,31,23.70
2014,08,18,14,32,23.60
2014,08,18,14,33,23.60
2014,08,18,14,34,23.60
2014,08,18,14,35,23.50
2014,08,18,14,36,23.40
2014,08,18,14,37,23.40
2014,08,18,14,38,23.30
2014,08,18,14,39,23.30
2014,08,18,14,40,23.30
2014,08,18,14,41,23.20
2014,08,18,14,42,23.20
2014,08,18,14,43,23.20
2014,08,18,14,44,23.20
2014,08,18,14,45,23.10
2014,08,18,14,46,23.10
2014,08,18,14,47,23.10
2014,08,18,14,48,23.10
2014,08,18,14,49,23.10
2014,08,18,14,50,23.10
2014,08,18,14,51,23.10
2014,08,18,14,52,23.00
2014,08,18,14,53,23.00
2014,08,18,14,54,23.00
2014,08,18,14,55,23.10
2014,08,18,14,56,23.10
2014,08,18,14,57,23.10
2014,08,18,14,58,23.10
2014,08,18,14,59,23.00
2014,08,18,15,00,23.00
2014,08,18,15,01,23.00
2014,08,18,15,02,23.10
2014,08,18,15,03,23.10
2014,08,18,15,04,23.10
2014,08,18,15,05,23.10
2014,08,18,15,06,23.00
2014,08,18,15,07,23.10
2014,08,18,15,08,23.10
2014,08,18,15,09,23.20
2014,08,18,15,10,23.30
2014,08,18,15,11,23.30
2014,08,18,15,12,23.30
2014,08,18,15,13,23.40
2014,08,18,15,14,23.40
2014,08,18,15,15,23.40
2014,08,18,15,16,23.40
2014,08,18,15,17,23.40
2014,08,18,15,18,23.40
2014,08,18,15,19,23.50
2014,08,18,15,20,23.60
2014,08,18,15,21,23.60
2014,08,18,15,22,23.70
2014,08,18,15,23,23.70
2014,08,18,15,24,23.90
2014,08,18,15,25,24.00
2014,08,18,15,26,24.00
2014,08,18,15,27,24.10
2014,08,18,15,28,24.10
2014,08,18,15,29,24.20
2014,08,18,15,30,24.20
2014,08,18,15,31,24.30
2014,08,18,15,32,24.30
2014,08,18,15,33,24.30
2014,08,18,15,34,24.40
2014,08,18,15,35,24.40
2014,08,18,15,36,24.30
2014,08,18,15,37,24.30
2014,08,18,15,38,24.30
2014,08,18,15,39,24.30
2014,08,18,15,40,24.30
2014,08,18,15,41,24.30
2014,08,18,15,42,24.30
2014,08,18,15,43,24.30
2014,08,18,15,44,24.30
2014,08,18,15,45,24.40
2014,08,18,15,46,24.40
2014,08,18,15,47,24.40
2014,08,18,15,48,24.40
2014,08,18,15,49,24.40
2014,08,18,15,50,24.40
2014,08,18,15,51,24.40
2014,08,18,15,52,24.40
2014,08,18,15,53,24.30
2014,08,18,15,54,24.30
2014,08,18,15,55,24.30
2014,08,18,15,56,24.20
2014,08,18,15,57,24.10
2014,08,18,15,58,24.10
2014,08,18,15,59,24.00
2014,08,18,16,00,23.90
2014,08,18,16,01,23.90
2014,08,18,16,02,23.90
2014,08,18,16,03,23.80
2014,08,18,16,04,23.80
2014,08,18,16,05,23.70
2014,08,18,16,06,23.70
2014,08,18,16,07,23.70
2014,08,18,16,08,23.70
2014,08,18,16,09,23.70
2014,08,18,16,10,23.70
2014,08,18,16,11,23.70
2014,08,18,16,12,23.70
2014,08,18,16,13,23.70
2014,08,18,16,14,23.70
2014,08,18,16,15,23.70
2014,08,18,16,16,23.70
2014,08,18,16,17,23.60
2014,08,18,16,18,23.60
2014,08,18,16,19,23.60
2014,08,18,16,20,23.60
2014,08,18,16,21,23.60
2014,08,18,16,22,23.60
2014,08,18,16,23,23.60
2014,08,18,16,24,23.70
2014,08,18,16,25,23.70
2014,08,18,16,26,23.70
2014,08,18,16,27,23.70
2014,08,18,16,28,23.70
2014,08,18,16,29,23.70
2014,08,18,16,30,23.70
2014,08,18,16,31,23.80
2014,08,18,16,32,23.80
2014,08,18,16,33,23.80
2014,08,18,16,34,23.80
2014,08,18,16,35,23.80
2014,08,18,16,36,23.80
2014,08,18,16,37,23.70
2014,08,18,16,38,23.70
2014,08,18,16,39,23.80
2014,08,18,16,40,23.80
2014,08,18,16,41,23.80
2014,08,18,16,42,23.80
2014,08,18,16,43,23.90
2014,08,18,16,44,23.90
2014,08,18,16,45,23.90
2014,08,18,16,46,23.90
2014,08,18,16,47,23.90
2014,08,18,16,48,24.00
2014,08,18,16,49,24.00
2014,08,18,16,50,24.00
2014,08,18,16,51,24.10
2014,08,18,16,52,24.10
2014,08,18,16,53,24.20
2014,08,18,16,54,24.20
2014,08,18,16,55,24.20
2014,08,18,16,56,24.20
2014,08,18,16,57,24.20
2014,08,18,16,58,24.20
2014,08,18,16,59,24.20
2014,08,18,17,00,24.20
2014,08,18,17,01,24.20
2014,08,18,17,02,24.20
2014,08,18,17,03,24.30
2014,08,18,17,04,24.30
2014,08,18,17,05,24.30
2014,08,18,17,06,24.30
2014,08,18,17,07,24.30
2014,08,18,17,08,24.30
2014,08,18,17,09,24.30
2014,08,18,17,10,24.30
2014,08,18,17,11,24.30
2014,08,18,17,12,24.30
2014,08,18,17,13,24.30
2014,08,18,17,14,24.30
2014,08,18,17,15,24.30
2014,08,18,17,16,24.30
2014,08,18,17,17,24.30
2014,08,18,17,18,24.30
2014,08,18,17,19,24.30